Location: Unspecified
(0.0000°N, 0.0000°E)
Time: 08:08:11
(UTC+00:00)

AO-85 - Visible Passes

Search period start: 21 July 2018 00:00
Search period end: 31 July 2018 00:00
Orbit: 495 x 790 km, 64.8° (Epoch: 18 July)

Date Brightness Start Highest point End Pass type
(mag) Time Alt. Az. Time Alt. Az. Time Alt. Az.
24 Jul ? 20:11:26 10° N 20:12:31 15° NNE 20:12:31 15° NNE visible
25 Jul ? 20:35:32 10° NNW 20:37:22 22° NNW 20:37:22 22° NNW visible
26 Jul ? 19:21:54 10° NNE 19:24:38 17° ENE 19:24:38 17° ENE visible
26 Jul ? 21:01:06 10° NW 21:02:19 16° WNW 21:02:19 16° WNW visible
27 Jul ? 19:45:07 10° N 19:49:39 49° NE 19:49:39 49° NE visible
28 Jul ? 20:10:01 10° NW 20:14:46 48° W 20:14:46 48° W visible
29 Jul ? 18:55:02 10° N 18:59:37 31° ENE 19:02:16 19° ESE visible
29 Jul ? 20:36:43 10° WNW 20:39:44 16° WSW 20:39:57 16° WSW visible
30 Jul ? 19:19:16 10° NNW 19:24:29 84° WSW 19:27:31 23° SSE visible
